Главная страница
METAR-TAF:

METAR-TAF

Аэропорты :

Cumberland, Мэриленд, США

широта: 39-36-56N, долгота: 078-45-39W, высота над уровнем моря: 236 м

Текущие метеонаблюдения

Эта сводка был подготовлена 21 минут назад, в 22:40 UTC
Ветер 4 Узел от северный
Температура 4°C
Влажность 75%
Давление 1012 hPa
Видимость: 16.1 км
Сплошная облачность на высоте 9000 фута

METAR: KCBE 232240Z AUTO 35004KT 10SM OVC090 04/00 A2989 RMK AO2 T00421003

Время: 18:01 (23:01 UTC)


TAF: отсутствует

Метеонаблюдения и прогнозы для более 4000 аэропортов (сводки METAR и TAF).

Имеющиеся станции представлены на карте желтыми и красными точками.

Чтобы увидеть название станции, наведите на нее мышь.

Затем щелкните, чтобы увидеть метеонаблюдения и метеопрогнозы.

Управление картой: чтобы увеличить масштаб, щелкните зеленые кнопки с черным крестиком; чтобы уменьшить масштаб, щелкните зеленую кнопку с тире; для просмотра соседних карт щелкайте зеленые стрелки.


METAR-TAF: